Location: Sternwarte_Laufen
(47.9344°N, 12.9346°E)
Time: 04:14:55
(UTC+02:00)

ISS - Pass Details

Date: 09 July 2025
Orbit: 413 x 417 km, 51.6° (Epoch: 12 July)

Event Time Altitude Azimuth Distance (km) Brightness Sun altitude
Rises 21:58:29 0° 224° (SW) 2,340 0.0 -7.3°
Reaches altitude 10° 22:00:39 10° 216° (SW) 1,482 -1.1 -7.6°
Maximum altitude 22:03:46 39° 146° (SE) 642 -3.3 -7.9°
Drops below altitude 10° 22:06:55 10° 76° (ENE) 1,492 -1.2 -8.3°
Sets 22:09:05 0° 69° (ENE) 2,358 -0.2 -8.5°
